Weather History for Lancaster, PA

Change the Weather History Date:

Tuesday, March 26, 2013

  Actual Average Record
Temperature  
Mean Temperature 40 °F -  
Max Temperature 50 °F 52 °F 75 °F (2004)
Min Temperature 32 °F 33 °F 21 °F (1983)
Degree Days  
Heating Degree Days 25    
Moisture  
Dew Point 29 °F    
Average Humidity 72    
Maximum Humidity 93    
Minimum Humidity 36    
Precipitation  
Precipitation 0.00 in - - ()
Sea Level Pressure  
Sea Level Pressure 29.80 in    
Wind  
Wind Speed 9 mph (WNW)    
Max Wind Speed 17 mph    
Max Gust Speed 22 mph    
Visibility 8 miles    
Events      
Averages and records for this station are not official NWS values.
T = Trace of Precipitation, MM = Missing Value Source: NWS Daily Summary

Daily Weather History Graph

Daily Weather History Graph

Search for Another Location

Airport:

Trip Planner

Search our weather history database for the weather conditions in past years. The results will help you decide how hot, cold, wet, or windy it might be!

Date:

Astronomy

Mar. 26, 2013 Rise Set
Actual Time 6:58 AM EDT 7:23 PM EDT
Civil Twilight 6:31 AM EDT 7:50 PM EDT
Nautical Twilight 5:59 AM EDT 8:22 PM EDT
Astronomical Twilight 5:26 AM EDT 8:55 PM EDT
Moon 6:58 PM EDT (3/26) 6:13 AM EDT (3/26)
Length of Visible Light 13h 19m
Length of Day
12h 25m
Waxing Gibbous, 99% of the Moon is Illuminated
Mar 26
Waxing Gibbous
Mar 27
Full
Apr 3
Last Quarter
Apr 10
New
Apr 18
First Quarter

Hourly Weather History & Observations

Time (EDT) Temp. Windchill Dew Point Humidity Pressure Visibility Wind Dir Wind Speed Gust Speed Precip Events Conditions
12:14 AM 33.8 °F 26.4 °F 30.2 °F 87% 29.66 in 2.5 mi WNW 9.2 mph - N/A   Mostly Cloudy
12:24 AM 32.0 °F 24.8 °F 30.2 °F 93% 29.66 in 3.0 mi WNW 8.1 mph - N/A   Scattered Clouds
12:53 AM 33.1 °F 26.9 °F 30.0 °F 89% 29.68 in 4.0 mi West 6.9 mph - N/A   Mostly Cloudy
1:53 AM 32.0 °F 25.6 °F 30.0 °F 92% 29.69 in 4.0 mi West 6.9 mph - N/A   Mostly Cloudy
2:53 AM 33.1 °F 26.1 °F 30.0 °F 89% 29.70 in 4.0 mi WNW 8.1 mph - N/A   Overcast
3:53 AM 32.0 °F 25.6 °F 30.0 °F 92% 29.71 in 7.0 mi West 6.9 mph - N/A   Overcast
4:53 AM 33.1 °F 25.5 °F 30.0 °F 89% 29.72 in 7.0 mi West 9.2 mph - N/A   Overcast
5:53 AM 33.1 °F 26.9 °F 30.0 °F 89% 29.74 in 7.0 mi West 6.9 mph - N/A   Overcast
6:53 AM 32.0 °F 24.8 °F 28.9 °F 88% 29.76 in 5.0 mi West 8.1 mph - N/A   Overcast
7:53 AM 33.1 °F 26.1 °F 28.9 °F 85% 29.79 in 6.0 mi West 8.1 mph - N/A   Overcast
8:53 AM 34.0 °F 27.2 °F 28.9 °F 82% 29.81 in 8.0 mi West 8.1 mph - N/A   Overcast
9:53 AM 36.0 °F 29.6 °F 30.0 °F 79% 29.82 in 10.0 mi West 8.1 mph - N/A   Overcast
10:53 AM 37.9 °F 32.7 °F 28.9 °F 70% 29.83 in 10.0 mi WNW 6.9 mph - N/A   Overcast
11:53 AM 42.1 °F 36.6 °F 30.0 °F 62% 29.83 in 10.0 mi NW 9.2 mph - N/A   Mostly Cloudy
12:53 PM 44.1 °F 38.1 °F 30.0 °F 58% 29.82 in 10.0 mi WNW 11.5 mph - N/A   Clear
1:53 PM 46.9 °F - 28.9 °F 50% 29.82 in 10.0 mi WNW 8.1 mph 18.4 mph N/A   Mostly Cloudy
2:53 PM 48.9 °F - 27.0 °F 43% 29.81 in 10.0 mi NW 15.0 mph 21.9 mph N/A   Mostly Cloudy
3:53 PM 48.9 °F - 23.0 °F 36% 29.80 in 10.0 mi WNW 9.2 mph - N/A   Mostly Cloudy
4:53 PM 46.9 °F - 25.0 °F 42% 29.82 in 10.0 mi NW 17.3 mph 21.9 mph N/A   Overcast
5:53 PM 46.9 °F - 30.0 °F 52% 29.83 in 10.0 mi WNW 16.1 mph - N/A   Overcast
6:53 PM 44.1 °F 39.0 °F 30.9 °F 60% 29.85 in 10.0 mi West 9.2 mph - N/A   Overcast
7:53 PM 42.1 °F 39.2 °F 30.9 °F 65% 29.88 in 10.0 mi West 4.6 mph - N/A   Overcast
8:53 PM 42.1 °F 37.1 °F 30.9 °F 65% 29.90 in 10.0 mi West 8.1 mph - N/A   Overcast
9:53 PM 39.9 °F 35.1 °F 30.0 °F 68% 29.92 in 10.0 mi West 6.9 mph - N/A   Overcast
10:53 PM 37.0 °F 32.4 °F 28.9 °F 73% 29.93 in 10.0 mi WNW 5.8 mph - N/A   Partly Cloudy
11:53 PM 36.0 °F 31.1 °F 27.0 °F 70% 29.95 in 10.0 mi NNW 5.8 mph - N/A   Clear